| time (UTC) | temp F | wind direction | speed MPH | gust MPH | rain 1hr in | rain 24hr in | rain mn in | humidity % | barometer mb |
| 20260502163055 | 53 | 352 | 2.0 | 6.0 | 0.00 | 0.00 | 0.00 | 80 | 1017.4 |
| 20260502161547 | 52 | 320 | 4.0 | 9.0 | 0.00 | 0.00 | 0.00 | 81 | 1017.7 |
| 20260502151550 | 48 | 342 | 1.0 | 6.0 | 0.00 | 0.00 | 0.00 | 87 | 1016.8 |
| 20260502123046 | 44 | 0 | 0.0 | 2.0 | 0.00 | 0.00 | 0.00 | 89 | 1017.4 |
| 20260502121541 | 44 | 211 | 2.0 | 4.0 | 0.00 | 0.00 | 0.00 | 89 | 1017.5 |
| 20260502114553 | 45 | 0 | 1.0 | 3.0 | 0.00 | 0.00 | 0.00 | 87 | 1017.5 |
| 20260502113046 | 46 | 173 | 0.0 | 4.0 | 0.00 | 0.00 | 0.00 | 86 | 1017.4 |
| 20260502111542 | 47 | 209 | 1.0 | 3.0 | 0.00 | 0.00 | 0.00 | 84 | 1017.0 |
| 20260502110044 | 47 | 306 | 1.0 | 4.0 | 0.00 | 0.00 | 0.00 | 84 | 1016.8 |
| 20260502104542 | 47 | 326 | 0.0 | 6.0 | 0.00 | 0.00 | 0.00 | 83 | 1017.0 |
| 20260502103040 | 48 | 275 | 1.0 | 8.0 | 0.00 | 0.00 | 0.00 | 82 | 1017.2 |
| 20260502101550 | 48 | 318 | 2.0 | 9.0 | 0.00 | 0.00 | 0.00 | 81 | 1017.3 |
| 20260502070044 | 52 | 293 | 1.0 | 3.0 | 0.00 | 0.00 | 0.00 | 72 | 1018.2 |
| 20260502064557 | 52 | 0 | 0.0 | 3.0 | 0.00 | 0.00 | 0.00 | 70 | 1018.2 |
| 20260502063041 | 53 | 0 | 0.0 | 3.0 | 0.00 | 0.00 | 0.00 | 70 | 1018.1 |
| 20260502061545 | 53 | 300 | 1.0 | 4.0 | 0.00 | 0.00 | 0.00 | 71 | 1018.0 |
| 20260502060049 | 53 | 0 | 1.0 | 3.0 | 0.00 | 0.00 | 0.00 | 72 | 1017.9 |
| 20260502054555 | 53 | 0 | 0.0 | 2.0 | 0.00 | 0.00 | 0.00 | 70 | 1017.7 |
| 20260502053046 | 54 | 0 | 1.0 | 3.0 | 0.00 | 0.00 | 0.00 | 69 | 1017.7 |
| 20260502051543 | 54 | 351 | 2.0 | 4.0 | 0.00 | 0.00 | 0.00 | 68 | 1017.5 |
| 20260502050045 | 54 | 5 | 1.0 | 5.0 | 0.00 | 0.00 | 0.00 | 67 | 1017.3 |
| 20260502044547 | 55 | 18 | 1.0 | 4.0 | 0.00 | 0.00 | 0.00 | 65 | 1017.3 |
| 20260502043046 | 56 | 0 | 2.0 | 9.0 | 0.00 | 0.00 | 0.00 | 65 | 1017.2 |
| 20260502041546 | 56 | 273 | 4.0 | 8.0 | 0.00 | 0.00 | 0.00 | 63 | 1017.0 |
| 20260502040056 | 57 | 309 | 1.0 | 5.0 | 0.00 | 0.00 | 0.00 | 63 | 1017.1 |
| 20260502034545 | 58 | 5 | 3.0 | 8.0 | 0.00 | 0.00 | 0.00 | 59 | 1017.0 |
| 20260502033040 | 58 | 342 | 3.0 | 8.0 | 0.00 | 0.00 | 0.00 | 58 | 1016.8 |
| 20260502031547 | 59 | 342 | 2.0 | 8.0 | 0.00 | 0.00 | 0.00 | 59 | 1016.7 |
| 20260502030046 | 60 | 291 | 1.0 | 8.0 | 0.00 | 0.00 | 0.00 | 59 | 1016.5 |
| 20260502024548 | 61 | 5 | 3.0 | 9.0 | 0.00 | 0.00 | 0.00 | 58 | 1016.5 |
| 20260502023051 | 62 | 5 | 2.0 | 11.0 | 0.00 | 0.00 | 0.00 | 57 | 1016.3 |
| 20260502021554 | 63 | 291 | 2.0 | 14.0 | 0.00 | 0.00 | 0.00 | 58 | 1016.3 |
| 20260502020108 | 64 | 352 | 4.0 | 18.0 | 0.00 | 0.00 | 0.00 | 56 | 1016.0 |
| 20260502014551 | 65 | 5 | 5.0 | 13.0 | 0.00 | 0.00 | 0.00 | 56 | 1016.0 |
| 20260502013050 | 66 | 36 | 7.0 | 15.0 | 0.00 | 0.00 | 0.00 | 55 | 1015.8 |
| 20260502011551 | 68 | 360 | 6.0 | 13.0 | 0.00 | 0.00 | 0.00 | 55 | 1015.9 |
| 20260502010045 | 68 | 350 | 5.0 | 15.0 | 0.00 | 0.00 | 0.00 | 55 | 1015.7 |
| 20260502004554 | 70 | 346 | 5.0 | 14.0 | 0.00 | 0.00 | 0.00 | 54 | 1015.7 |
| 20260502003052 | 69 | 352 | 3.0 | 11.0 | 0.00 | 0.00 | 0.00 | 55 | 1015.6 |
| 20260502001622 | 70 | 16 | 2.0 | 9.0 | 0.00 | 0.00 | 0.00 | 55 | 1015.6 |
| 20260502000047 | 72 | 5 | 4.0 | 10.0 | 0.00 | 0.00 | 0.00 | 56 | 1015.5 |
| 20260501234542 | 72 | 36 | 3.0 | 9.0 | 0.00 | 0.00 | 0.00 | 53 | 1015.7 |
| 20260501233053 | 73 | 352 | 2.0 | 9.0 | 0.00 | 0.00 | 0.00 | 54 | 1015.5 |
| 20260501231551 | 74 | 5 | 3.0 | 6.0 | 0.00 | 0.00 | 0.00 | 52 | 1015.5 |
| 20260501230050 | 74 | 132 | 0.0 | 7.0 | 0.00 | 0.00 | 0.00 | 50 | 1016.0 |
| 20260501224602 | 74 | 110 | 1.0 | 5.0 | 0.00 | 0.00 | 0.00 | 47 | 1016.0 |
| 20260501223054 | 73 | 40 | 2.0 | 5.0 | 0.00 | 0.00 | 0.00 | 48 | 1016.3 |
| 20260501221544 | 73 | 329 | 1.0 | 4.0 | 0.00 | 0.00 | 0.00 | 44 | 1016.2 |
| 20260501220051 | 73 | 34 | 3.0 | 6.0 | 0.00 | 0.00 | 0.00 | 45 | 1016.4 |
| 20260501214548 | 73 | 61 | 2.0 | 5.0 | 0.00 | 0.00 | 0.00 | 53 | 1016.5 |
| 20260501213051 | 73 | 5 | 1.0 | 6.0 | 0.00 | 0.00 | 0.00 | 53 | 1016.6 |
| 20260501211549 | 72 | 0 | 1.0 | 6.0 | 0.00 | 0.00 | 0.00 | 52 | 1016.6 |
| 20260501210053 | 72 | 198 | 1.0 | 6.0 | 0.00 | 0.00 | 0.00 | 59 | 1017.0 |
| 20260501204545 | 71 | 46 | 2.0 | 5.0 | 0.00 | 0.00 | 0.00 | 56 | 1017.1 |
| 20260501203042 | 71 | 76 | 1.0 | 6.0 | 0.00 | 0.00 | 0.00 | 60 | 1017.3 |
| 20260501201544 | 69 | 38 | 2.0 | 4.0 | 0.00 | 0.00 | 0.00 | 58 | 1017.4 |
| 20260501200043 | 69 | 154 | 3.0 | 6.0 | 0.00 | 0.00 | 0.00 | 58 | 1017.5 |
| 20260501194547 | 68 | 0 | 3.0 | 7.0 | 0.00 | 0.00 | 0.00 | 62 | 1017.5 |
| 20260501193042 | 67 | 45 | 2.0 | 6.0 | 0.00 | 0.00 | 0.00 | 63 | 1017.7 |
| 20260501191550 | 67 | 176 | 0.0 | 7.0 | 0.00 | 0.00 | 0.00 | 65 | 1017.8 |
| 20260501190044 | 65 | 96 | 1.0 | 7.0 | 0.00 | 0.00 | 0.00 | 64 | 1018.0 |
| 20260501184550 | 65 | 55 | 1.0 | 5.0 | 0.00 | 0.00 | 0.00 | 66 | 1017.9 |
| 20260501183043 | 65 | 130 | 3.0 | 5.0 | 0.00 | 0.00 | 0.00 | 66 | 1018.2 |
| 20260501181548 | 64 | 111 | 1.0 | 7.0 | 0.00 | 0.00 | 0.00 | 68 | 1018.1 |
| 20260501180055 | 63 | 52 | 3.0 | 7.0 | 0.00 | 0.00 | 0.00 | 69 | 1018.2 |
| 20260501174548 | 62 | 34 | 2.0 | 6.0 | 0.00 | 0.00 | 0.00 | 69 | 1018.1 |
| 20260501173048 | 62 | 27 | 3.0 | 5.0 | 0.00 | 0.00 | 0.00 | 68 | 1018.2 |
| 20260501171548 | 62 | 23 | 1.0 | 4.0 | 0.00 | 0.00 | 0.00 | 69 | 1018.2 |
| 20260501170056 | 61 | 40 | 0.0 | 3.0 | 0.00 | 0.00 | 0.00 | 68 | 1018.2 |
| 20260501164556 | 60 | 97 | 1.0 | 3.0 | 0.00 | 0.00 | 0.00 | 66 | 1018.1 |